• In United States
  • List of Countries
  • For 7 days
  • Water Temperature
  • Satellite Maps
  • Weather Map
  • Weather Widgets
  • user-avatar
    Login

    Hourly Weather Biskira

    Today, 24 June, Sunday

    Time Temperature Precipitation Wind Pressure Humidity
    00:00 +34°C° 0 mm 4 mps 752 mmHg 33%
    01:00 +34°C° 0 mm 4 mps 752 mmHg 35%
    02:00 +33°C° 0 mm 3 mps 752 mmHg 36%
    03:00 +31°C° 0 mm 3 mps 751 mmHg 38%
    04:00 +32°C° 0 mm 2 mps 752 mmHg 36%
    05:00 +32°C° 0 mm 2 mps 752 mmHg 35%
    06:00 +32°C° 0 mm 1 mps 752 mmHg 34%
    07:00 +34°C° 0 mm 2 mps 752 mmHg 30%
    08:00 +36°C° 0 mm 2 mps 752 mmHg 27%
    09:00 +37°C° 0 mm 2 mps 752 mmHg 24%
    10:00 +38°C° 0 mm 2 mps 752 mmHg 21%
    11:00 +39°C° 0 mm 2 mps 751 mmHg 18%
    12:00 +40°C° 0 mm 3 mps 751 mmHg 16%
    13:00 +42°C° 0 mm 4 mps 751 mmHg 14%
    14:00 +43°C° 0 mm 4 mps 750 mmHg 13%
    15:00 +45°C° 0 mm 5 mps 750 mmHg 11%
    16:00 +45°C° 0 mm 5 mps 749 mmHg 11%
    17:00 +45°C° 0 mm 5 mps 749 mmHg 11%
    18:00 +45°C° 0 mm 5 mps 749 mmHg 12%
    19:00 +42°C° 0 mm 4 mps 749 mmHg 14%
    20:00 +41°C° 0 mm 4 mps 750 mmHg 17%
    21:00 +38°C° 0 mm 3 mps 750 mmHg 19%
    22:00 +37°C° 0 mm 3 mps 750 mmHg 21%
    23:00 +37°C° 0 mm 3 mps 750 mmHg 23%

    Tomorrow, 25 June, Monday

    Time Temperature Precipitation Wind Pressure Humidity
    00:00 +36°C° 0 mm 3 mps 750 mmHg 25%
    01:00 +35°C° 0 mm 3 mps 750 mmHg 26%
    02:00 +34°C° 0 mm 3 mps 750 mmHg 28%
    03:00 +32°C° 0 mm 2 mps 749 mmHg 30%
    04:00 +34°C° 0 mm 2 mps 750 mmHg 31%
    05:00 +34°C° 0 mm 2 mps 750 mmHg 32%
    06:00 +34°C° 0 mm 2 mps 750 mmHg 33%
    07:00 +35°C° 0 mm 3 mps 750 mmHg 29%
    08:00 +36°C° 0 mm 3 mps 751 mmHg 25%
    09:00 +37°C° 0 mm 3 mps 751 mmHg 22%
    10:00 +40°C° 0 mm 4 mps 751 mmHg 19%
    11:00 +41°C° 0 mm 4 mps 750 mmHg 15%
    12:00 +42°C° 0 mm 5 mps 750 mmHg 12%
    13:00 +44°C° 0 mm 6 mps 750 mmHg 11%
    14:00 +44°C° 0 mm 6 mps 750 mmHg 10%
    15:00 +45°C° 0 mm 7 mps 750 mmHg 10%
    16:00 +44°C° 0 mm 7 mps 750 mmHg 10%
    17:00 +43°C° 0 mm 7 mps 750 mmHg 11%
    18:00 +41°C° 0 mm 7 mps 750 mmHg 12%
    19:00 +40°C° 0 mm 6 mps 750 mmHg 14%
    20:00 +39°C° 0 mm 5 mps 751 mmHg 16%
    21:00 +36°C° 0 mm 5 mps 751 mmHg 19%
    22:00 +35°C° 0 mm 4 mps 751 mmHg 21%
    23:00 +34°C° 0 mm 4 mps 751 mmHg 23%

    Day after tomorrow, 26 June, Tuesday

    Time Temperature Precipitation Wind Pressure Humidity
    00:00 +33°C° 0 mm 3 mps 751 mmHg 25%
    01:00 +31°C° 0 mm 3 mps 751 mmHg 29%
    02:00 +30°C° 0 mm 3 mps 751 mmHg 32%
    03:00 +29°C° 0 mm 3 mps 751 mmHg 36%
    04:00 +29°C° 0 mm 3 mps 751 mmHg 38%
    05:00 +29°C° 0 mm 3 mps 751 mmHg 41%
    06:00 +29°C° 0 mm 3 mps 752 mmHg 43%
    07:00 +30°C° 0 mm 2 mps 752 mmHg 41%
    08:00 +31°C° 0 mm 2 mps 752 mmHg 38%
    09:00 +32°C° 0 mm 2 mps 752 mmHg 35%
    10:00 +34°C° 0 mm 2 mps 751 mmHg 31%
    11:00 +35°C° 0 mm 2 mps 751 mmHg 27%
    12:00 +37°C° 0 mm 2 mps 751 mmHg 23%
    13:00 +38°C° 0 mm 3 mps 751 mmHg 21%
    14:00 +39°C° 0 mm 3 mps 750 mmHg 19%
    15:00 +41°C° 0 mm 4 mps 750 mmHg 16%
    16:00 +41°C° 0 mm 5 mps 750 mmHg 16%
    17:00 +41°C° 0 mm 5 mps 750 mmHg 16%
    18:00 +41°C° 0 mm 6 mps 750 mmHg 16%
    19:00 +39°C° 0 mm 6 mps 750 mmHg 17%
    20:00 +37°C° 0 mm 5 mps 751 mmHg 19%
    21:00 +36°C° 0 mm 5 mps 751 mmHg 21%
    22:00 +35°C° 0 mm 5 mps 751 mmHg 22%
    23:00 +34°C° 0 mm 4 mps 751 mmHg 24%

    27 June, Wednesday

    Time Temperature Precipitation Wind Pressure Humidity
    00:00 +33°C° 0 mm 4 mps 751 mmHg 25%
    01:00 +32°C° 0 mm 4 mps 751 mmHg 27%
    02:00 +30°C° 0 mm 3 mps 751 mmHg 28%
    03:00 +30°C° 0 mm 3 mps 751 mmHg 30%
    04:00 +30°C° 0 mm 3 mps 751 mmHg 31%
    05:00 +30°C° 0 mm 3 mps 752 mmHg 33%
    06:00 +30°C° 0 mm 4 mps 752 mmHg 34%
    07:00 +30°C° 0 mm 4 mps 752 mmHg 33%
    08:00 +31°C° 0 mm 3 mps 752 mmHg 31%
    09:00 +33°C° 0 mm 3 mps 752 mmHg 29%
    10:00 +34°C° 0 mm 3 mps 752 mmHg 27%
    11:00 +35°C° 0 mm 3 mps 752 mmHg 24%
    12:00 +36°C° 0 mm 2 mps 752 mmHg 22%
    13:00 +37°C° 0 mm 2 mps 751 mmHg 20%
    14:00 +38°C° 0 mm 2 mps 751 mmHg 19%
    15:00 +39°C° 0 mm 2 mps 750 mmHg 17%
    16:00 +39°C° 0 mm 2 mps 750 mmHg 17%
    17:00 +39°C° 0 mm 3 mps 750 mmHg 17%
    18:00 +39°C° 0 mm 3 mps 750 mmHg 17%
    19:00 +38°C° 0 mm 3 mps 751 mmHg 18%
    20:00 +37°C° 0 mm 3 mps 751 mmHg 20%
    21:00 +36°C° 0 mm 3 mps 752 mmHg 21%
    22:00 +35°C° 0 mm 3 mps 751 mmHg 22%
    23:00 +35°C° 0 mm 2 mps 751 mmHg 24%

    28 June, Thursday

    Time Temperature Precipitation Wind Pressure Humidity
    00:00 +34°C° 0 mm 2 mps 751 mmHg 25%
    01:00 +32°C° 0 mm 2 mps 751 mmHg 26%
    02:00 +32°C° 0 mm 2 mps 751 mmHg 27%
    03:00 +31°C° 0 mm 2 mps 751 mmHg 28%
    04:00 +31°C° 0 mm 3 mps 751 mmHg 30%
    05:00 +30°C° 0 mm 4 mps 751 mmHg 33%
    06:00 +30°C° 0 mm 6 mps 751 mmHg 35%
    07:00 +32°C° 0 mm 5 mps 751 mmHg 34%
    08:00 +33°C° 0 mm 5 mps 751 mmHg 32%
    09:00 +34°C° 0 mm 5 mps 752 mmHg 31%
    10:00 +35°C° 0 mm 5 mps 751 mmHg 28%
    11:00 +36°C° 0 mm 4 mps 751 mmHg 26%
    12:00 +37°C° 0 mm 4 mps 751 mmHg 23%
    13:00 +38°C° 0 mm 4 mps 750 mmHg 22%
    14:00 +40°C° 0 mm 4 mps 750 mmHg 21%
    15:00 +39°C° 0 mm 3 mps 749 mmHg 20%
    16:00 +39°C° 0 mm 3 mps 749 mmHg 20%
    17:00 +39°C° 0 mm 3 mps 749 mmHg 20%
    18:00 +39°C° 0 mm 3 mps 749 mmHg 19%
    19:00 +38°C° 0 mm 3 mps 750 mmHg 20%
    20:00 +38°C° 0 mm 3 mps 750 mmHg 21%
    21:00 +37°C° 0 mm 3 mps 750 mmHg 22%
    22:00 +36°C° 0 mm 3 mps 750 mmHg 23%
    23:00 +36°C° 0 mm 3 mps 750 mmHg 24%

    29 June, Friday

    Time Temperature Precipitation Wind Pressure Humidity
    00:00 +35°C° 0 mm 3 mps 749 mmHg 25%
    01:00 +35°C° 0 mm 4 mps 749 mmHg 25%
    02:00 +34°C° 0 mm 4 mps 749 mmHg 26%
    03:00 +33°C° 0 mm 4 mps 749 mmHg 26%
    04:00 +33°C° 0 mm 4 mps 749 mmHg 27%
    05:00 +33°C° 0 mm 5 mps 749 mmHg 27%
    06:00 +33°C° 0 mm 5 mps 750 mmHg 27%
    07:00 +35°C° 0 mm 5 mps 750 mmHg 25%
    08:00 +37°C° 0 mm 5 mps 750 mmHg 22%
    09:00 +39°C° 0 mm 5 mps 750 mmHg 20%
    10:00 +40°C° 0 mm 5 mps 750 mmHg 18%
    11:00 +42°C° 0 mm 5 mps 750 mmHg 16%
    12:00 +43°C° 0 mm 5 mps 749 mmHg 15%
    13:00 +45°C° 0 mm 5 mps 749 mmHg 13%
    14:00 +46°C° 0 mm 5 mps 749 mmHg 12%
    15:00 +47°C° 0 mm 5 mps 748 mmHg 11%
    16:00 +46°C° 0 mm 5 mps 748 mmHg 11%
    17:00 +46°C° 0 mm 5 mps 748 mmHg 11%
    18:00 +46°C° 0 mm 5 mps 748 mmHg 11%
    19:00 +45°C° 0 mm 5 mps 748 mmHg 12%
    20:00 +43°C° 0 mm 5 mps 748 mmHg 13%
    21:00 +41°C° 0 mm 5 mps 749 mmHg 14%
    22:00 +41°C° 0 mm 5 mps 748 mmHg 15%
    23:00 +40°C° 0 mm 5 mps 748 mmHg 15%
    Show more